Regional Weather Roundup
Issued by NWS Green Bay, WI

Home | Current Version | Previous Version | Graphics & Text | Print | Product List | Glossary Off
Versions: 1 2 3 4 5 6 7 8 9 10 11 12 13 14 15 16 17 18 19 20 21 22 23 24 25 26 27 28 29 30 31 32 33 34 35 36 37 38 39 40 41 42 43 44 45 46 47 48 49 50

000
ASUS43 KGRB 281259
RWRGRB

NORTH-CENTRAL AND NORTHEAST WISCONSIN REGIONAL WEATHER ROUNDUP
NATIONAL WEATHER SERVICE GREEN BAY WI
800 AM CDT SAT MAR 28 2015

WIZ005-009-010>012-018-019-281400-
NORTH CENTRAL WISCONSIN

CITY           SKY/WX    TMP DP  RH WIND       PRES   REMARKS
IRONWOOD       SUNNY      9   9 100 CALM      30.20S
MANITOWISH WTR NOT AVBL
ARBOR VITAE    NOT AVBL
EAGLE RIVER    NOT AVBL
LAND O LAKES   NOT AVBL
RHINELANDER    SUNNY     11   5  77 CALM      30.23R
PHILLIPS       NOT AVBL
ANTIGO         NOT AVBL
TOMAHAWK       NOT AVBL
MERRILL        NOT AVBL
$$

WIZ013-073-281400-
NORTHEAST WISCONSIN

CITY           SKY/WX    TMP DP  RH WIND       PRES   REMARKS
IRON MOUNTAIN  SUNNY      5  -1  76 CALM      30.24S
MARINETTE      SUNNY     14   7  73 CALM      30.31R
$$

WIZ017-030-035>037-045-281400-
CENTRAL WISCONSIN

CITY           SKY/WX    TMP DP  RH WIND       PRES   REMARKS
MEDFORD        NOT AVBL
WAUSAU         SUNNY     15  10  80 E6        30.24R WCI   6
MOSINEE        SUNNY     14  10  85 VRB3      30.26R
MARSHFIELD     SUNNY     20  14  77 CALM      30.25R
WISC RAPIDS      N/A     17  10  74 CALM      30.28R
STEVENS POINT  NOT AVBL
WAUPACA        NOT AVBL
SHAWANO        SUNNY     16  11  83 CALM      30.31R
CLINTONVILLE   SUNNY     19  14  79 CALM      30.30R
$$

WIZ038-039-048-051-281400-
FOX VALLEY

CITY           SKY/WX    TMP DP  RH WIND       PRES   REMARKS
NWS GREEN BAY  SUNNY     21  14  74 CALM      30.31R
APPLETON       SUNNY     19  12  73 CALM      30.29R
OSHKOSH        SUNNY     21  15  78 CALM      30.30R
FOND DU LAC    SUNNY     19  14  81 CALM      30.30R
$$

WIZ022-050-052-281400-
EAST CENTRAL WISCONSIN

CITY           SKY/WX    TMP DP  RH WIND       PRES   REMARKS
STURGEON BAY   SUNNY     19   5  53 CALM      30.33R
MANITOWOC      NOT AVBL
SHEBOYGAN      SUNNY     20  13  74 NW3       30.31R
$$

LMZ563-521-522-541>543-281400-
LAKESHORE

STATION/POSITION TIME  TEMP    WIND        PRES    VSBY  WAVE
                       AIR SEA DIR/SP/G                  HT/PER
                 (UTC) (F)     (DEG/KT/KT) (MB)    (MI)  (FT/S)
SHEBOYGAN LKSHOR 1200   21     300/  6/  7 1027.1R
KEWAUNEE LKSHORE 1200   16     320/  1/  4 1025.2R
NORTHPORT PIER   1200   15     300/  3/  4 1026.1R
SISTER BAY LKSHO 1200             CALM       N/A
STURGEON BAY CG  1200   12     310/  4     1026.0      6
CHAMBERS ISLAND  1200    9        CALM     1025.7R
MENOMINEE LKSHOR 1200   14     320/  3     1026.9R
$$



USA.gov is the U.S. government's official web portal to all federal, state and local government web resources and services.